Temp
-6 -3 -2 -2 -1 -1 -0 0 0 1 1 1 1 2 4 4 5 5 5 6 7 7 7 7 7 7 7 6 6 6 7 7 6 7 7 7 6 7 7 7 8 6 6 7
-8 -4 -3 -1 -1 -1 -0 -0 -1 1 0 1 1 3 4 4 4 5 5 5 6 6 6 6 7 7 6 6 6 6 6 6 6 7 6 6 6 6 7 7 6 7 6 8
-8 -4 -2 -2 -2 -2 -1 -2 -1 1 0 1 2 3 4 4 4 5 5 6 5 5 6 6 6 6 6 6 5 6 5 6 7 7 8 7 6 7 6 6 6 7 7 8
-7 -5 -2 -2 -3 -2 -2 -1 0 1 1 1 2 3 4 4 4 4 4 5 5 6 6 6 5 5 6 5 5 5 5 5 6 6 5 6 7 7 7 6 7 7 7 8
-7 -7 -4 -3 -4 -3 -2 -1 1 1 1 1 2 3 4 5 5 5 5 6 6 6 6 5 6 5 5 5 6 5 5 5 5 5 5 5 5 6 6 7 6 7 7 7
-7 -7 -4 -3 -4 -2 -2 -1 1 1 1 2 2 3 4 5 5 4 5 5 5 5 5 5 5 5 5 4 5 5 4 4 4 5 4 4 4 6 6 6 6 6 6 6
-7 -7 -4 -4 -3 -2 -1 -1 0 0 0 1 2 3 3 4 5 4 4 4 5 4 5 5 5 5 5 5 5 4 5 4 3 4 4 2 6 6 6 6 6 6 6 5
-7 -5 -4 -5 -3 -2 -1 -1 -0 0 1 1 2 3 3 4 4 3 4 5 5 4 4 4 4 4 4 4 4 4 4 4 3 3 4 5 5 5 5 5 6 5 4 4
-6 -5 -5 -5 -3 -2 -1 -1 0 0 1 1 2 2 3 2 3 3 4 4 4 4 4 4 3 4 4 3 3 3 4 4 3 3 3 2 4 5 5 5 5 2 3 2
-6 -5 -5 -3 -2 -2 -1 -1 -0 1 1 2 1 2 2 2 3 3 4 4 4 4 4 4 3 4 4 4 3 3 3 3 2 2 2 3 3 4 4 3 3 2 3 2
-5 -4 -3 -2 -2 -1 -1 -1 -0 1 1 1 1 2 1 2 2 3 3 4 4 3 3 3 3 3 3 3 3 3 3 3 3 1 1 2 3 3 2 2 2 1 2 1
-4 -3 -2 -1 -1 -1 -1 -1 -0 1 0 1 1 1 1 1 2 3 3 4 4 4 3 3 3 3 3 3 3 3 2 2 3 2 3 3 2 2 1 2 2 1 1 1
-3 -2 -1 -1 -1 -1 -1 -1 -0 -0 0 1 1 1 2 2 2 2 3 4 3 4 3 3 3 3 3 3 2 2 3 3 2 2 2 1 1 1 0 0 -0 -0 -0 -0
-1 -1 -1 -1 -1 -1 -1 -1 -1 -0 0 0 0 2 2 2 2 3 3 3 4 4 3 3 3 3 2 2 2 2 2 2 1 1 2 1 0 -0 -1 -0 -0 -1 -1 -1
-1 -1 -0 -0 -1 -1 -1 -1 -0 0 0 0 1 2 2 2 2 3 3 3 3 3 3 3 3 3 2 2 2 2 2 1 1 0 0 0 -0 -1 -0 -1 -1 -1 -1 -1
-0 -0 -0 -0 -1 -1 -1 -1 -0 -0 -0 0 1 1 2 2 2 2 2 3 3 2 2 2 2 2 2 1 1 1 2 1 1 0 0 0 -0 -1 -0 -1 -1 -1 -2 -2
-0 -0 -0 -0 -0 -1 -1 -1 -0 -0 -1 -0 0 1 1 1 2 2 2 2 2 2 2 2 2 2 1 1 1 0 1 1 1 1 0 -1 -0 -1 -1 -2 -2 -3 -3 -3
-0 -0 -1 -1 -2 -1 -2 -2 -0 -1 -1 -1 1 1 1 1 1 1 1 1 2 2 2 2 2 1 1 0 1 1 1 0 0 0 -0 -1 -1 -2 -2 -3 -3 -4 -4 -4
-1 -1 -1 -1 -2 -2 -2 -2 -2 -1 -2 -1 0 1 1 1 1 1 1 1 1 1 1 1 1 1 0 1 1 0 0 -0 -1 -1 -1 -2 -2 -2 -3 -4 -4 -4 -4 -5
-1 -1 -2 -2 -2 -2 -1 -2 -3 -3 -1 1 2 2 1 1 1 1 1 1 1 1 1 1 1 1 1 1 0 0 -0 -1 -1 -2 -2 -3 -3 -3 -4 -4 -5 -5 -6 -6
-2 -2 -2 -2 -2 -2 -2 -2 -2 -2 -0 1 2 2 2 2 1 1 1 1 1 0 1 0 -0 -0 0 0 -0 -0 -1 -1 -2 -3 -3 -4 -4 -5 -5 -5 -6 -6 -7 -8
-3 -3 -3 -3 -3 -3 -2 -1 -1 -0 1 1 1 2 2 2 1 1 1 0 0 0 -0 -1 -1 -1 -1 -1 -1 -2 -3 -3 -4 -4 -5 -5 -6 -6 -6 -7 -8 -8 -9 -9
-2 -2 -3 -3 -2 -2 -1 -0 0 1 1 1 1 1 1 1 1 0 -0 -0 -0 -1 -2 -2 -2 -1 -2 -2 -3 -5 -6 -6 -6 -6 -6 -7 -7 -7 -8 -8 -9 -9 -9 -10
-2 -2 -3 -3 -2 -1 -1 -0 0 0 1 1 1 1 0 1 -0 -1 -1 -2 -3 -3 -4 -4 -1 -2 -3 -4 -5 -6 -6 -7 -7 -7 -8 -8 -8 -8 -9 -9 -9 -10 -10 -10
-3 -3 -3 -3 -2 -2 -1 -1 -0 -0 0 0 0 -0 -1 -1 -2 -2 -2 -3 -4 -5 -5 -4 -4 -5 -5 -6 -7 -7 -7 -8 -8 -8 -8 -9 -9 -9 -10 -10 -10 -11 -11 -11
-4 -4 -4 -3 -3 -3 -2 -2 -2 -1 -1 -1 -2 -2 -2 -3 -3 -3 -4 -4 -5 -5 -4 -5 -5 -6 -7 -7 -8 -8 -8 -9 -9 -9 -10 -10 -10 -11 -11 -11 -11 -12 -12 -12
-5 -5 -5 -4 -4 -4 -4 -4 -4 -4 -4 -4 -4 -4 -4 -4 -5 -5 -5 -6 -6 -6 -6 -7 -7 -7 -8 -8 -9 -9 -9 -9 -10 -10 -11 -11 -11 -11 -12 -12 -12 -13 -13 -13
Height
2934 2955 2970 2988 3002 3020 3027 3038 3046 3053 3060 3067 3071 3075 3080 3086 3086 3085 3089 3092 3096 3098 3101 3103 3105 3107 3110 3110 3113 3115 3117 3117 3118 3119 3117 3118 3119 3120 3121 3123 3122 3123 3123 3119
2925 2943 2961 2975 2990 3004 3018 3028 3042 3048 3056 3058 3065 3073 3078 3081 3083 3084 3087 3090 3094 3096 3099 3102 3104 3106 3105 3108 3110 3113 3114 3115 3116 3116 3118 3116 3116 3118 3119 3120 3119 3119 3121 3117
2917 2933 2952 2962 2979 2997 3012 3027 3035 3041 3044 3056 3064 3069 3071 3077 3078 3082 3085 3088 3092 3094 3097 3099 3101 3103 3104 3106 3108 3109 3110 3111 3112 3112 3111 3111 3113 3114 3115 3116 3117 3116 3115 3114
2910 2924 2940 2956 2970 2990 3006 3017 3023 3027 3032 3046 3059 3066 3069 3073 3075 3079 3082 3085 3088 3092 3094 3097 3099 3101 3100 3103 3105 3106 3108 3108 3109 3109 3109 3109 3110 3111 3111 3111 3112 3112 3111 3110
2903 2914 2927 2946 2964 2986 2996 3008 3019 3028 3037 3048 3054 3060 3064 3068 3072 3076 3079 3082 3086 3089 3092 3094 3096 3097 3098 3099 3101 3103 3104 3105 3105 3105 3106 3106 3107 3107 3107 3107 3108 3108 3107 3107
2898 2909 2920 2940 2958 2975 2985 3004 3017 3024 3031 3041 3049 3053 3060 3065 3070 3073 3076 3080 3083 3087 3089 3090 3092 3092 3095 3097 3098 3099 3100 3101 3102 3103 3102 3103 3103 3100 3102 3103 3104 3105 3104 3105
2892 2900 2918 2935 2950 2970 2990 2999 3009 3016 3025 3035 3043 3052 3058 3062 3067 3071 3073 3077 3081 3083 3085 3088 3090 3091 3093 3094 3095 3096 3096 3098 3099 3100 3101 3103 3096 3096 3096 3097 3099 3100 3100 3100
2889 2899 2912 2931 2948 2970 2988 2999 3008 3015 3022 3033 3043 3049 3055 3061 3064 3068 3070 3073 3076 3080 3083 3086 3088 3089 3090 3091 3091 3092 3093 3095 3096 3097 3097 3096 3094 3093 3094 3094 3096 3094 3094 3095
2885 2897 2911 2930 2950 2971 2987 2993 3006 3011 3020 3030 3040 3046 3052 3054 3059 3064 3067 3071 3074 3077 3080 3083 3086 3087 3088 3090 3089 3089 3090 3091 3094 3094 3094 3093 3090 3089 3089 3090 3093 3089 3090 3089
2886 2898 2913 2934 2953 2970 2985 2997 3005 3014 3022 3031 3036 3041 3046 3053 3057 3062 3064 3068 3072 3075 3078 3081 3084 3085 3086 3088 3087 3087 3087 3088 3090 3091 3091 3089 3087 3086 3087 3090 3093 3086 3086 3085
2889 2905 2920 2938 2955 2973 2983 2996 3003 3014 3021 3025 3031 3039 3043 3048 3053 3056 3060 3067 3068 3072 3076 3079 3081 3082 3083 3085 3086 3085 3086 3086 3086 3087 3088 3087 3083 3084 3087 3086 3084 3083 3080 3080
2903 2916 2930 2944 2960 2973 2985 2995 3004 3013 3020 3022 3028 3030 3036 3043 3051 3058 3059 3065 3066 3069 3074 3076 3077 3079 3080 3081 3083 3082 3085 3084 3085 3086 3085 3082 3081 3081 3080 3079 3078 3077 3074 3073
2910 2924 2937 2951 2963 2975 2985 2996 3005 3011 3016 3022 3027 3029 3033 3039 3044 3047 3057 3059 3062 3066 3069 3072 3073 3075 3077 3078 3078 3079 3079 3079 3080 3080 3081 3079 3078 3076 3074 3073 3071 3070 3069 3067
2919 2931 2943 2956 2967 2977 2987 2997 3004 3010 3014 3019 3021 3027 3029 3035 3040 3046 3051 3056 3061 3064 3066 3067 3069 3072 3073 3074 3075 3076 3077 3076 3076 3075 3075 3075 3074 3072 3068 3068 3066 3064 3062 3060
2927 2938 2949 2959 2970 2979 2987 2996 3003 3008 3015 3016 3020 3024 3028 3032 3037 3043 3048 3053 3057 3059 3061 3063 3065 3067 3069 3069 3071 3071 3072 3073 3071 3071 3071 3069 3070 3065 3062 3061 3059 3057 3055 3054
2932 2943 2953 2962 2972 2981 2989 2996 3001 3005 3010 3013 3016 3020 3024 3029 3034 3040 3044 3048 3052 3054 3056 3059 3060 3062 3065 3065 3066 3066 3066 3065 3065 3065 3064 3063 3061 3056 3057 3054 3053 3050 3048 3045
2938 2947 2956 2966 2976 2984 2990 2997 3000 3004 3007 3011 3015 3019 3022 3028 3033 3036 3041 3045 3048 3051 3052 3054 3056 3058 3059 3059 3061 3060 3060 3060 3057 3057 3057 3056 3055 3050 3050 3048 3046 3044 3040 3037
2942 2951 2959 2968 2977 2985 2990 2994 2997 3002 3005 3009 3013 3014 3021 3024 3028 3033 3037 3042 3044 3046 3048 3050 3051 3053 3053 3054 3054 3054 3054 3053 3049 3050 3049 3049 3046 3045 3043 3041 3038 3036 3033 3029
2947 2955 2964 2972 2979 2984 2989 2995 2996 2997 3003 3007 3009 3011 3015 3021 3025 3030 3035 3038 3040 3042 3042 3045 3047 3046 3046 3047 3047 3047 3046 3045 3043 3042 3041 3040 3039 3037 3035 3033 3031 3029 3026 3023
2952 2959 2966 2974 2980 2984 2987 2992 2997 3002 3005 3005 3006 3009 3012 3019 3023 3028 3033 3034 3036 3036 3039 3040 3038 3038 3040 3041 3041 3039 3038 3038 3036 3035 3034 3032 3031 3030 3028 3026 3024 3022 3019 3017
2956 2961 2966 2972 2978 2984 2987 2990 2995 2997 3000 3003 3005 3009 3012 3017 3021 3024 3027 3028 3029 3030 3032 3033 3030 3029 3032 3033 3033 3031 3030 3030 3029 3028 3027 3026 3025 3024 3022 3021 3018 3017 3015 3013
2961 2963 2968 2975 2981 2984 2988 2989 2992 2995 2999 3000 3004 3008 3011 3014 3017 3019 3022 3023 3025 3023 3025 3025 3021 3021 3025 3025 3024 3024 3023 3022 3022 3021 3021 3021 3020 3019 3017 3016 3014 3013 3011 3010
2963 2967 2973 2978 2982 2984 2985 2986 2990 2991 2994 2998 3001 3005 3008 3011 3014 3016 3018 3018 3018 3018 3017 3015 3013 3017 3016 3016 3017 3018 3017 3017 3017 3017 3017 3017 3016 3014 3013 3012 3010 3009 3007 3006
2962 2966 2971 2977 2978 2979 2981 2983 2987 2990 2994 2996 2999 3002 3004 3006 3009 3010 3012 3011 3012 3010 3010 3007 3009 3009 3010 3011 3012 3013 3013 3013 3013 3013 3013 3013 3012 3011 3010 3008 3006 3005 3003 3001
2964 2967 2969 2972 2974 2976 2979 2982 2986 2988 2990 2993 2996 2998 3001 3002 3004 3005 3006 3006 3005 3004 3002 3002 3003 3004 3006 3007 3008 3009 3009 3010 3010 3010 3010 3009 3009 3007 3006 3004 3003 3001 2999 2996
2961 2964 2967 2970 2972 2974 2977 2979 2982 2985 2987 2989 2992 2994 2996 2997 2999 2999 2998 3000 2998 2997 2998 2999 3000 3001 3003 3004 3005 3006 3007 3007 3007 3007 3006 3005 3004 3002 3001 2999 2998 2996 2993 2990
2960 2963 2966 2968 2970 2973 2975 2978 2980 2982 2984 2986 2989 2990 2992 2992 2993 2993 2993 2994 2994 2995 2996 2997 2999 3000 3001 3002 3003 3004 3004 3004 3003 3003 3002 3000 2999 2998 2996 2993 2991 2989 2986 2983
Wind_Speed
59 66 67 63 57 51 53 47 41 52 46 44 35 32 28 18 15 13 14 17 14 16 17 17 15 19 13 15 14 14 13 10 10 13 11 15 7 11 13 11 8 6 5 15
52 74 71 62 61 62 57 52 37 46 46 43 35 28 27 21 16 14 18 18 14 13 15 15 16 15 17 12 15 13 13 12 11 10 10 10 13 14 13 11 11 11 5 6
53 78 77 59 64 62 58 43 38 47 52 40 32 31 31 24 17 15 16 16 16 12 14 15 11 14 14 16 14 12 14 16 16 16 9 4 13 14 16 16 12 13 16 16
57 78 75 54 62 63 57 42 44 48 57 48 34 32 27 28 19 14 17 16 18 16 13 14 13 12 15 17 16 15 14 12 16 17 11 11 10 12 15 20 21 18 16 13
53 72 77 55 60 60 61 43 44 39 32 42 31 33 29 31 21 19 19 16 18 15 13 15 13 14 13 15 18 16 16 11 15 17 14 18 15 16 17 18 19 21 21 21
52 59 85 60 64 68 67 43 38 39 33 46 35 34 28 31 23 19 17 17 16 13 14 13 11 15 12 11 12 14 13 17 13 10 10 10 15 25 22 21 20 18 21 20
60 50 64 66 70 70 62 40 29 41 35 46 40 30 26 27 24 17 18 15 13 15 15 13 11 9 10 13 15 15 16 15 9 6 3 1 11 12 15 16 19 21 20 18
59 72 59 67 70 67 56 39 30 36 35 35 36 28 26 24 25 15 20 17 13 14 13 11 8 9 10 12 13 14 14 14 8 5 10 11 12 12 9 8 11 8 8 10
67 49 65 67 68 62 52 42 35 21 37 25 32 29 29 24 25 24 19 16 14 12 15 13 7 6 6 5 4 14 13 13 10 8 4 4 4 8 8 9 9 4 11 6
52 63 68 65 66 61 46 43 30 23 23 27 21 30 29 25 20 21 25 21 15 14 17 16 8 8 7 5 6 5 10 13 14 11 8 7 9 13 12 6 3 10 12 17
62 68 65 66 62 59 45 38 34 27 21 20 24 20 24 26 26 26 27 22 21 20 19 16 9 9 9 8 7 6 6 5 6 7 6 7 9 5 2 7 14 19 22 17
62 61 62 61 57 53 45 37 33 31 20 20 23 28 28 27 24 21 24 20 19 18 13 13 10 10 9 10 6 9 5 9 5 7 4 10 10 15 13 21 23 22 23 22
57 59 59 57 54 51 45 37 34 30 26 19 17 25 24 27 33 36 26 27 22 19 18 15 13 11 9 11 10 10 13 12 12 12 5 9 11 17 18 18 17 18 20 22
57 56 55 53 50 48 38 33 33 26 26 24 21 22 27 28 29 36 29 26 22 21 20 21 20 15 13 15 14 13 11 14 12 14 16 13 11 10 12 18 21 23 23 24
52 52 51 49 46 45 34 32 30 26 23 19 23 23 24 24 29 31 29 27 24 21 21 20 17 16 17 17 16 14 15 11 13 10 11 16 12 17 25 24 25 26 26 27
46 47 47 46 44 43 36 35 33 32 32 14 22 27 29 23 25 27 27 24 23 23 22 18 17 16 15 10 12 11 16 16 17 17 21 21 22 28 26 26 26 28 29 33
42 43 43 42 41 42 38 24 32 31 27 13 15 25 29 26 26 26 23 24 24 24 19 17 16 14 16 16 13 14 17 19 24 24 23 22 23 26 25 26 28 31 32 34
39 41 42 42 46 41 31 24 29 38 21 14 14 18 29 30 30 29 28 24 20 18 17 17 16 16 17 15 18 21 22 23 27 25 25 25 26 25 27 29 29 29 31 31
39 40 41 43 43 31 30 23 25 24 15 8 13 22 28 32 31 29 24 21 19 16 19 19 19 20 15 19 20 22 24 26 28 28 28 28 28 27 25 23 25 27 28 29
39 42 45 43 36 27 22 24 12 13 12 7 12 20 18 29 29 26 21 20 20 15 20 22 24 27 27 26 27 30 30 28 27 26 24 23 23 22 23 23 23 20 16 16
34 40 41 41 35 23 23 11 14 12 10 13 15 18 16 18 24 24 21 15 12 14 17 19 19 24 24 24 27 28 27 24 21 21 22 20 19 17 15 15 15 14 15 15
22 23 27 29 24 12 6 10 10 9 14 15 18 17 16 18 20 19 21 16 10 10 16 16 16 25 22 25 25 24 21 21 16 11 9 9 11 12 13 14 15 15 16 16
29 31 24 17 12 13 9 12 15 13 16 19 19 21 21 19 20 20 14 10 14 17 11 15 24 22 23 20 17 15 13 12 8 7 9 10 11 12 13 14 15 16 17 18
28 23 15 9 8 9 9 17 18 16 16 14 16 18 20 22 20 17 8 12 11 8 11 18 22 18 15 13 11 12 10 8 9 9 10 12 13 14 15 16 18 18 18 19
19 9 9 12 9 11 14 16 16 16 18 17 20 24 23 19 11 9 10 6 7 8 10 17 12 11 10 12 11 10 10 10 11 11 13 15 15 16 17 18 18 19 20 21
10 9 9 14 13 11 11 13 16 16 17 19 18 16 10 11 8 9 10 7 7 10 11 9 8 11 13 12 11 11 10 11 13 14 15 16 17 18 20 20 21 21 21 23
8 10 11 12 14 14 13 12 14 15 16 14 11 8 10 7 8 8 9 8 8 6 3 1 4 10 12 11 11 11 13 14 15 16 16 18 20 22 22 22 22 23 24 25
Wind_Direction
207 198 189 187 200 193 195 190 187 186 184 192 198 201 197 207 212 207 193 196 204 204 203 206 214 217 225 212 214 229 223 227 208 234 228 228 234 235 225 225 222 231 272 277
201 186 185 186 191 193 190 189 183 189 189 196 196 198 201 210 203 205 196 197 198 201 207 207 214 214 218 219 210 211 214 219 223 234 249 243 231 234 228 230 237 242 242 274
193 184 184 185 186 190 187 180 184 193 195 192 199 195 200 198 193 195 194 195 201 186 199 207 211 213 218 214 211 217 219 224 227 239 256 226 223 231 227 224 234 244 246 279
195 190 185 186 182 186 182 179 192 191 193 191 198 198 196 195 197 193 193 196 195 200 209 209 217 210 226 219 218 219 213 231 233 240 259 265 254 248 235 233 242 252 266 276
199 196 193 182 178 182 183 181 188 190 200 188 195 198 202 193 191 196 193 195 201 207 215 218 232 223 217 220 224 224 228 234 230 243 250 259 257 254 247 244 245 251 263 277
198 193 192 174 176 184 182 172 191 189 192 189 192 194 192 191 188 192 190 194 194 201 209 204 219 200 209 207 223 225 228 228 236 244 245 252 263 257 250 249 248 257 263 274
197 203 184 172 176 185 176 176 182 174 186 190 191 192 188 187 193 196 192 178 191 209 215 211 216 229 240 243 240 240 240 230 216 246 254 263 259 255 251 248 253 260 268 273
200 194 166 175 177 181 170 176 168 178 180 187 192 193 188 184 192 185 195 202 214 207 202 211 230 226 233 236 234 231 226 225 214 206 225 264 273 268 262 260 267 271 260 267
203 182 167 176 175 176 174 169 173 189 186 187 189 190 186 184 183 193 200 200 202 192 194 200 197 205 208 193 224 227 224 225 208 215 220 236 259 256 262 263 266 269 268 287
183 163 165 172 171 174 174 172 167 176 175 193 180 194 195 192 184 194 199 201 201 199 200 201 201 219 203 213 200 218 213 225 227 236 238 258 247 265 269 254 245 278 280 294
161 166 165 165 168 171 172 173 175 172 173 187 197 194 202 196 195 202 199 204 208 201 202 207 217 224 218 226 228 236 236 225 221 210 231 252 263 287 241 248 280 291 296 299
162 161 161 163 167 171 171 169 182 187 185 207 196 199 205 195 199 198 210 217 217 211 199 206 212 218 224 223 237 246 242 229 237 221 275 265 267 286 282 290 291 291 290 296
157 160 161 164 168 172 178 180 192 199 196 197 196 207 207 207 204 200 200 203 208 219 220 227 225 226 237 235 246 248 267 269 256 270 279 278 271 288 289 292 297 296 296 297
158 161 164 167 169 175 176 178 189 194 205 206 214 203 206 202 204 204 208 218 229 234 234 231 234 242 250 245 246 253 253 275 279 280 289 284 291 301 281 290 292 294 292 294
161 163 166 168 171 175 177 181 191 196 189 211 211 206 203 200 198 200 210 223 227 236 225 215 231 248 252 254 260 262 272 271 265 273 269 270 280 266 281 292 289 291 292 294
162 165 168 170 172 176 177 181 191 196 204 211 201 200 189 185 193 201 206 214 217 209 215 230 246 250 247 246 248 235 265 268 268 270 274 279 279 278 286 287 289 293 295 295
161 163 166 170 174 180 185 194 199 200 199 180 186 188 189 193 191 189 192 201 208 209 222 235 245 245 239 245 250 251 273 278 277 279 280 278 277 282 287 288 290 293 294 294
156 160 164 168 174 185 193 201 208 206 181 174 188 185 183 188 191 195 200 202 203 219 235 241 243 240 242 245 257 270 277 276 276 277 278 279 283 285 288 291 292 293 295 304
154 158 162 167 176 185 194 199 213 183 152 183 181 199 192 195 195 196 195 204 219 234 239 241 243 246 240 252 266 266 266 263 267 271 276 279 283 286 288 291 292 291 297 300
152 157 158 167 175 186 199 175 173 183 197 183 183 188 189 191 196 200 207 221 232 237 243 246 246 249 260 263 266 266 266 267 271 273 272 276 282 286 290 294 298 303 310 312
159 165 170 170 180 194 178 174 182 183 196 203 186 179 183 191 205 214 217 225 223 237 242 240 247 253 258 261 263 265 269 275 275 274 276 280 283 288 293 300 306 310 307 301
141 150 140 146 159 156 177 176 177 190 194 195 200 200 202 207 209 212 216 223 230 240 246 243 249 258 261 258 256 261 271 280 286 281 274 281 291 298 301 301 300 298 299 300
159 144 149 161 166 181 189 190 186 192 191 201 207 210 215 216 222 224 228 228 237 249 244 250 256 267 261 256 254 269 271 287 287 286 290 295 295 295 296 297 299 303 305 308
167 164 153 181 181 194 188 185 190 190 189 193 203 213 221 231 228 230 223 234 239 229 243 254 261 260 258 255 249 249 267 272 279 280 281 284 288 291 296 300 304 305 304 303
169 170 182 187 183 182 193 193 197 199 204 211 224 228 229 227 214 213 218 216 217 219 232 258 264 241 225 216 225 243 255 258 261 272 280 284 288 292 297 299 300 300 300 301
164 167 168 184 188 192 193 197 204 210 219 221 221 222 217 211 210 201 205 213 218 239 234 224 210 189 203 224 235 238 246 258 267 271 276 283 291 297 301 303 302 300 302 305
137 143 166 174 184 196 205 206 208 211 217 225 223 213 206 212 211 205 202 208 219 206 193 207 203 209 220 232 234 242 255 263 269 273 280 289 296 299 302 303 302 303 304 305